RH
74 58 70 66 48 49 41 38 32 25 35 33 28 26 25 23 20 24 20 18 18 19 19 26 24 25 25 34 32 27 29 31 30 37 26 20 21 21 24 28 27 29 31 31 34
73 58 65 67 56 45 41 37 31 25 36 32 28 26 24 22 22 26 16 18 15 14 20 21 19 22 31 30 36 36 37 27 20 20 22 21 24 24 22 23 23 23 24 32 41
70 70 74 66 69 40 40 36 30 26 36 31 29 27 24 24 28 17 18 17 14 15 23 21 19 20 24 24 31 35 36 33 28 22 24 27 28 25 24 26 24 21 20 24 43
76 72 70 64 59 37 39 34 27 30 35 31 30 27 23 28 23 19 19 19 16 16 18 16 17 19 23 22 27 30 30 31 28 26 31 30 25 25 28 23 24 24 25 28 31
74 70 64 67 60 38 36 30 24 34 34 30 29 28 24 22 20 20 21 19 16 16 16 17 18 20 20 21 23 28 24 25 27 28 29 29 30 26 27 24 22 23 26 26 27
76 71 64 63 66 35 32 27 23 36 33 29 29 28 30 24 17 19 18 16 16 16 17 17 19 21 22 23 23 22 24 27 28 26 24 25 24 25 21 24 22 26 28 29 31
73 76 68 53 41 33 27 24 28 36 32 30 29 30 28 22 18 19 17 16 16 16 18 18 18 20 22 22 23 25 25 25 22 22 22 26 17 26 23 22 24 26 28 32 34
76 73 51 40 34 30 26 25 38 36 31 31 32 33 25 17 18 18 18 18 18 17 17 19 18 22 22 23 24 24 25 27 19 20 25 23 23 18 24 21 24 27 28 32 34
72 63 43 34 33 32 29 36 38 33 32 33 36 27 24 19 19 18 18 18 18 19 19 19 20 27 26 27 28 28 28 26 25 23 20 21 24 22 25 23 24 27 29 31 33
67 40 34 35 34 33 39 38 36 35 37 40 41 27 22 22 19 20 19 18 19 21 22 26 33 32 34 30 24 26 27 27 27 21 23 24 28 27 28 27 27 29 31 31 31
52 38 38 36 36 40 41 39 40 38 51 31 31 24 18 19 19 20 20 18 20 23 27 29 30 33 28 31 25 27 29 30 28 23 27 28 32 29 29 29 30 30 31 30 30
46 43 43 39 42 42 42 38 28 23 32 37 31 29 21 19 21 21 19 23 24 30 27 29 34 28 27 31 29 30 28 29 26 24 29 33 31 27 26 28 29 32 31 32 32
42 43 40 43 45 46 40 32 28 32 32 27 36 32 26 19 21 22 20 23 26 30 30 28 22 31 26 29 29 28 29 27 25 29 31 36 29 26 26 28 32 33 33 33 36
44 42 44 47 47 38 39 25 32 30 30 24 31 30 24 24 24 20 20 21 24 27 32 31 26 27 27 30 29 28 26 25 29 32 28 34 27 29 28 29 30 32 32 35 37
43 40 45 43 38 46 30 28 32 20 39 21 29 22 24 24 25 24 20 20 28 26 25 23 24 25 25 24 26 25 27 29 31 38 39 36 36 30 29 32 31 32 34 37 38
43 45 48 52 46 39 37 32 24 29 40 32 27 28 28 25 27 26 23 24 23 25 26 26 24 24 23 26 24 33 32 36 49 45 40 35 36 31 32 29 30 31 31 37 37
49 46 46 43 37 38 37 27 37 37 22 32 32 30 31 31 30 27 28 30 33 36 35 29 30 26 24 27 29 28 29 32 24 34 35 40 39 31 25 24 27 30 31 34 36
54 52 47 39 39 40 29 36 37 28 30 30 33 33 33 32 31 30 32 34 29 29 39 37 28 31 26 26 31 32 28 31 24 28 30 37 41 25 27 35 34 31 32 34 37
56 58 48 39 45 39 42 50 40 35 27 36 31 33 33 30 31 33 36 36 32 32 30 39 30 30 29 28 27 32 35 28 41 46 44 38 32 26 32 36 36 36 37 37 38
57 51 48 38 47 37 51 55 40 29 30 31 34 33 38 38 35 37 40 33 31 34 26 29 31 32 30 29 31 31 32 36 40 33 36 36 38 33 35 36 36 36 37 40 45
44 52 62 44 44 56 63 54 42 35 29 33 35 35 34 38 38 40 35 29 30 37 30 30 29 30 31 34 38 37 38 41 39 41 37 40 35 32 34 37 36 34 38 46 48
54 54 73 51 66 80 69 50 41 32 36 31 32 29 35 39 39 39 36 32 31 34 34 30 35 38 32 31 31 32 34 36 39 40 50 46 41 29 32 36 35 35 44 48 48
76 89 68 52 73 78 59 47 38 32 30 30 32 31 29 34 31 36 33 32 33 32 35 34 38 38 30 31 32 34 37 38 43 45 52 44 36 36 38 39 35 39 48 49 48
83 92 84 78 80 62 55 50 44 36 30 28 30 31 32 32 33 31 33 37 35 32 41 34 40 32 32 24 35 37 38 41 38 49 47 43 31 35 40 44 42 44 49 49 47
74 75 79 96 90 60 50 48 49 43 39 35 36 34 33 35 36 35 34 41 39 48 40 35 38 41 36 28 37 36 37 43 44 40 38 27 38 30 33 38 42 45 54 48 47
80 80 74 87 69 60 61 57 50 43 45 44 40 40 40 38 34 38 40 43 39 44 40 51 46 44 44 49 44 50 51 50 45 38 46 43 43 33 38 51 57 55 50 46 52
83 78 62 82 81 62 62 55 52 41 42 40 41 47 49 42 36 30 38 40 38 46 49 51 62 60 56 61 56 64 59 54 55 58 51 58 45 50 57 58 55 52 51 49 58
Wind_Speed
12 11 10 10 9 10 10 10 9 8 7 8 9 9 10 11 9 4 4 2 3 5 4 6 4 3 3 3 3 3 3 2 4 4 3 2 1 2 0 2 2 5 3 1 3
14 11 11 11 10 10 10 11 9 8 7 8 9 9 10 12 5 7 3 5 4 5 6 4 2 3 3 2 3 4 2 6 4 4 4 2 3 3 2 3 4 4 4 6 4
15 13 11 12 13 10 11 12 11 8 7 7 9 9 10 8 2 3 6 7 5 5 5 5 5 3 2 1 1 2 4 4 4 5 2 4 3 2 1 5 4 5 7 4 4
15 13 12 12 13 11 12 12 11 9 7 7 9 9 9 2 5 1 4 10 6 5 5 6 4 2 2 2 2 1 4 4 2 1 2 3 2 3 5 3 6 7 7 6 7
14 15 13 13 14 12 12 11 11 8 8 6 8 9 3 1 5 0 8 10 7 6 4 4 2 3 2 2 2 3 3 3 5 4 4 3 5 5 5 7 6 7 7 8 10
15 15 14 14 14 13 11 10 10 9 8 7 6 8 2 2 2 4 9 8 6 5 4 4 4 5 3 2 3 3 3 6 5 4 3 3 2 1 1 6 7 9 11 10 10
15 16 14 13 14 12 11 10 11 9 8 6 6 4 1 8 3 7 9 5 5 4 4 3 5 3 4 1 2 1 5 5 1 1 1 3 0 4 1 4 7 10 10 11 14
16 15 15 13 13 11 10 10 11 9 8 7 5 3 5 4 6 8 9 6 6 5 5 5 5 4 2 2 5 2 3 3 1 3 0 1 5 2 2 7 6 8 9 10 14
16 15 14 13 12 11 10 10 9 8 7 5 3 3 6 2 5 8 11 7 8 7 6 7 5 3 3 3 3 4 1 1 6 4 1 1 6 3 6 5 4 7 8 9 11
16 14 13 13 11 10 9 8 6 5 3 3 2 1 3 4 5 6 9 12 4 6 4 6 5 3 2 2 3 2 1 3 4 2 2 2 8 8 6 4 5 6 6 7 11
15 13 14 13 11 11 8 4 2 1 4 7 6 3 1 3 5 4 7 8 4 6 3 3 3 6 7 6 3 3 3 3 4 3 2 1 4 7 4 7 6 6 6 8 10
17 15 15 12 12 11 10 4 5 3 3 14 3 4 4 4 3 2 10 5 4 4 3 3 5 7 3 4 3 2 3 4 4 2 1 3 4 2 2 2 3 4 6 7 5
16 15 14 13 12 11 12 11 2 2 1 4 5 5 5 7 4 7 8 4 4 5 5 5 2 4 3 2 3 4 5 3 4 3 2 4 2 1 2 2 3 3 3 4 7
17 17 16 14 7 8 7 14 6 2 2 5 4 5 4 7 3 1 8 5 2 8 6 4 1 4 3 4 7 4 4 4 2 2 2 2 2 3 3 3 2 3 4 4 6
17 17 17 18 2 7 4 11 10 3 2 2 3 2 3 6 6 2 1 4 8 6 6 5 4 3 2 4 6 3 2 3 2 2 2 1 1 2 1 5 5 5 5 4 4
18 19 19 17 6 6 10 16 6 4 6 2 3 5 5 2 2 3 3 5 3 4 2 5 2 3 3 2 2 6 4 5 3 2 1 1 2 2 5 5 4 3 5 5 5
18 19 20 11 3 11 16 6 4 4 2 4 4 4 3 4 3 3 4 4 5 4 4 1 3 1 2 2 1 2 4 3 2 1 3 2 0 5 3 4 6 8 7 6 5
17 19 22 13 7 16 8 4 4 3 5 2 3 3 5 5 2 3 5 3 3 4 3 5 3 5 2 3 5 3 4 4 3 2 2 2 5 2 4 5 5 5 7 5 5
16 17 7 15 9 12 4 3 7 6 4 7 2 3 2 2 4 3 6 5 7 10 7 5 3 1 2 1 2 3 2 3 5 2 1 2 5 4 2 3 5 6 5 4 4
16 13 5 12 12 4 4 5 4 4 3 3 5 3 5 5 4 4 7 3 4 8 2 5 3 1 2 2 4 1 5 3 2 2 3 2 4 4 4 6 5 5 6 5 4
10 4 5 17 12 4 5 6 6 6 3 5 5 4 3 6 6 5 5 2 4 5 2 5 3 1 2 5 7 2 1 5 3 3 3 2 4 5 10 7 8 6 5 7 5
8 3 4 20 3 1 5 6 5 3 3 2 4 3 6 5 4 4 6 4 6 6 8 5 4 4 4 2 3 3 4 5 4 4 1 1 6 3 7 8 7 5 5 5 4
4 3 3 1 6 3 2 3 3 3 4 5 5 3 3 6 3 4 4 1 4 6 7 6 0 2 4 2 1 4 4 3 4 3 6 4 5 2 5 6 4 6 6 4 3
4 3 2 2 1 7 6 4 4 2 2 3 3 4 3 3 3 4 4 2 2 3 2 6 3 6 6 4 4 4 5 5 5 3 4 8 8 5 7 8 6 4 6 5 2
1 4 4 5 4 3 6 8 6 6 2 3 1 4 6 5 3 4 3 2 1 3 3 4 5 4 4 2 4 4 5 8 8 7 9 19 12 10 13 14 8 6 5 5 4
5 4 1 3 9 6 6 8 10 5 8 5 5 9 7 7 9 8 6 4 6 1 4 1 3 3 2 2 4 5 9 8 11 10 8 10 20 7 1 5 6 8 7 5 4
4 2 3 3 4 11 7 6 7 7 6 6 9 6 5 10 7 3 3 3 4 8 7 5 5 3 4 1 1 6 9 13 4 4 6 7 8 5 5 7 8 7 6 5 4
Wind_Direction
263 264 256 258 259 271 276 280 281 271 278 298 303 311 317 317 313 242 236 185 151 144 139 123 101 71 74 72 67 127 77 188 237 172 256 292 355 274 164 246 231 208 237 275 289
254 251 251 261 261 265 272 277 274 261 272 292 301 310 321 319 297 242 203 175 146 140 143 123 100 67 47 67 30 80 122 218 205 194 230 245 206 256 302 285 265 284 267 261 238
256 253 242 254 258 257 269 272 270 251 265 288 298 311 323 319 306 240 193 175 156 145 128 111 103 75 78 55 135 157 202 205 241 229 254 282 288 236 237 288 249 283 290 287 254
247 253 252 256 259 255 262 266 265 251 264 289 297 313 318 297 183 291 199 180 161 144 128 107 62 66 106 210 167 139 242 203 280 225 133 245 296 277 209 283 312 279 293 299 293
242 244 244 246 253 248 255 262 259 250 266 287 303 313 299 261 247 294 157 164 156 145 116 118 115 127 200 208 159 187 252 202 244 268 253 330 269 256 290 310 321 340 9 336 320
241 240 239 246 251 246 253 256 250 250 263 283 299 310 269 221 216 179 161 160 166 152 129 129 166 189 155 210 186 207 263 280 275 187 206 214 186 140 235 325 15 29 12 10 2
239 240 238 243 249 246 246 246 239 248 264 279 289 281 291 237 188 175 169 171 167 162 133 143 143 126 130 236 307 308 318 323 315 66 92 165 103 197 267 330 37 33 22 12 9
234 237 238 240 243 244 240 236 237 245 261 275 272 192 244 233 215 187 173 144 137 124 113 122 128 105 81 114 10 30 52 10 320 344 327 133 274 226 16 19 37 33 26 17 19
232 230 231 231 232 232 224 225 241 253 264 257 211 192 261 226 218 207 192 160 134 107 90 104 81 94 51 96 356 18 247 281 321 18 38 358 275 259 359 344 76 44 30 22 20
229 221 223 226 219 217 211 223 242 258 223 179 230 68 257 222 165 156 165 149 125 114 56 44 51 78 50 109 241 210 277 245 247 258 11 230 272 307 314 194 116 69 41 34 40
227 217 219 213 203 203 198 186 90 299 212 193 202 212 149 147 147 126 153 117 95 67 152 10 81 222 217 198 166 130 188 243 260 268 301 165 282 322 359 99 106 79 57 50 47
215 208 213 202 197 195 197 213 207 159 266 234 233 276 243 204 118 143 155 123 131 164 119 33 240 248 180 153 160 174 211 259 286 273 16 359 321 318 75 101 108 97 71 63 65
212 210 202 193 190 197 208 215 226 180 162 278 192 190 198 179 193 194 148 138 133 137 177 178 238 116 130 139 172 224 200 206 230 332 77 318 356 148 80 104 111 78 83 71 68
205 201 193 176 178 198 217 229 213 168 27 257 219 254 163 140 227 204 177 137 107 184 148 232 270 217 193 229 156 245 198 149 133 44 275 19 275 267 203 166 165 103 96 107 94
198 192 187 180 187 184 186 180 169 93 293 181 171 152 147 160 138 13 154 50 158 166 124 253 181 185 187 215 175 213 135 104 98 118 21 322 149 230 93 218 203 180 153 138 123
192 189 185 194 233 217 154 145 129 62 248 183 140 169 121 48 66 111 108 54 131 111 35 230 306 182 210 88 173 147 82 54 65 110 16 269 181 239 185 199 192 176 168 164 153
191 189 186 183 221 177 155 122 81 174 357 196 183 162 120 151 109 116 149 144 147 118 222 232 226 253 150 135 36 93 65 331 351 14 213 76 41 250 213 216 196 178 180 181 168
186 186 193 197 210 167 176 69 166 217 201 107 119 96 159 156 166 127 110 174 226 124 131 171 277 176 174 194 182 166 164 154 253 237 271 1 233 234 233 260 230 173 171 166 157
180 178 190 207 191 182 91 120 204 202 178 151 96 116 213 169 133 122 177 201 206 177 176 154 235 87 67 125 130 173 166 155 106 50 359 241 283 309 26 80 134 163 150 173 159
158 160 182 186 174 154 89 217 216 197 163 147 166 142 171 190 147 160 170 204 230 193 161 198 120 355 163 118 36 169 147 95 21 205 266 277 275 234 193 184 180 188 177 142 124
150 137 171 166 152 67 184 219 218 225 189 150 186 136 175 173 170 184 189 241 209 167 176 145 109 207 124 198 179 118 195 53 115 136 200 292 261 209 193 187 184 186 142 148 136
154 147 160 156 114 87 167 192 195 193 145 192 118 126 174 157 162 211 208 232 173 155 168 192 130 175 191 159 165 167 172 155 139 205 117 137 269 202 193 178 178 172 158 155 136
123 118 91 260 179 187 235 260 194 153 186 172 182 169 177 170 160 205 200 338 164 156 163 188 167 72 343 14 8 210 188 139 103 93 190 161 255 69 165 173 158 170 174 166 112
123 124 27 70 346 146 143 194 194 229 159 139 142 114 126 160 238 180 219 186 153 183 96 98 146 166 195 198 136 183 190 179 143 155 172 225 247 196 217 208 202 181 172 169 155
87 196 180 178 204 178 176 177 169 196 213 175 31 193 169 171 155 211 203 141 63 153 77 138 206 179 244 185 164 202 204 174 196 210 204 263 222 226 215 214 201 189 171 167 158
143 147 24 141 138 134 173 202 183 175 155 216 186 216 185 169 185 203 157 189 205 126 157 21 192 149 278 95 195 252 245 218 224 244 255 275 274 205 192 120 145 160 170 162 141
149 105 110 136 125 179 205 190 186 148 218 189 196 138 164 224 192 174 161 137 171 159 172 149 138 120 253 19 331 285 234 220 212 194 187 229 260 182 174 164 162 171 167 143 142